FENGYUN 1C DEB, 30989

Orbit data source: Space-Track

FENGYUN 1C DEB, 30989 is space debris in SSO originally from a launch on Mon, 10 May 1999 UTC launched from the Taiyaun Space Center, China (TSC). Fengyun 1C debris stems from the Chinese weather satellite Fengyun-1C, which was intentionally destroyed by a Chinese anti-satellite missile in 2007. This event dramatically increased the amount of space debris, with thousands of trackable fragments posing hazards to satellites and human spaceflight. The Fengyun 1C debris cloud has become a focal point in discussions about space sustainability and the need for international regulations to prevent the creation of new debris.

Loading next visibility...
Identifier
30989, 1999-025BCF
Orbit
SSO
Country
Flag of CNCN / PRC
Related business
Manufacturer
Unknown
Mission
Spacecraft
Bus & Motor
Unknown
Mass
Unknown
Launch date (UTC)
1999-05-10 (27 years ago)
Launch vehicle
Unknown
Launch site
Taiyaun Space Center, China (TSC)
Object type
Payload
Rocket body
Debris
Shape & HBR
Unknown shape, 0.1 m
Radar Cross Section
Medium (>0.1 m² and <1 m²)

Expand to show TLE details & history
Last TLE update: 1 day ago

TLE from 1 day ago
0 FENGYUN 1C DEB
1 30989U 99025BCF 26264.17022680  .00001086  00000-0  56153-3 0  9998
2 30989  99.0390 346.3899 0087598  20.6875 339.7808 14.15163098999810
Epoch: 2026-09-21T04:05Z
TLE epoch observation values (Epoch: 2026-09-21T04:05:07.595Z)
Latitude
-0.0001°
Longitude
-74.94563°
Altitude
785.362 km
Speed
7.492 km/s
True Right ascension
23h 05m 33s
True Declination
0° 00' 00"
Sunlit
Object was in full shadow at epoch
Visualization orbit readout
Latitude
Unknown
Longitude
Unknown
Altitude
Unknown
Speed
Unknown
Apparent Right ascension
Unknown
Apparent Declination
Unknown
Sunlit
N/A
Visualization observer readout
Local Sidereal Time
00:04:10
Azimuth
Unknown
Elevation
Unknown
Doppler factor
Unknown
Orbital elements
Apogee altitude
902.158 km
Perigee altitude
775.718 km
Semi-major axis
7,217.075 km
Eccentricity
0.00876
Inclination
99.039°
RAAN
346.3899°
Arg. of periapsis
20.6875°
True anomaly
339.43028°
Mean anomaly
339.7808°
Eccentric anomaly
339.6059°
Mean motion
3.53998 °/min
Orbital period
101.7 mins
BSTAR
0.00056153
Loading maneuver chart data...
Computing Atmospheric mass density...

Documentation

Showing up to 5 results
|